Temp
-11 -12 -11 -11 -11 -12 -11 -11 -12 -12 -12 -12 -12 -12 -12 -12 -12 -13 -13 -13 -13 -13 -13 -14 -14 -14 -15 -15 -16 -17 -17 -17 -17 -17 -17 -17 -18 -18 -19 -19 -19 -19 -20
-12 -12 -12 -12 -12 -12 -12 -12 -12 -12 -12 -12 -12 -12 -12 -13 -13 -13 -13 -13 -13 -14 -14 -14 -14 -15 -15 -16 -17 -17 -17 -18 -17 -18 -18 -18 -19 -19 -19 -19 -20 -20 -20
-11 -12 -12 -12 -12 -12 -12 -12 -12 -12 -12 -12 -13 -13 -13 -13 -13 -13 -13 -14 -14 -14 -14 -15 -15 -15 -16 -16 -17 -17 -18 -17 -18 -18 -18 -19 -19 -19 -20 -20 -20 -20 -21
-11 -11 -12 -12 -12 -12 -12 -13 -13 -13 -13 -13 -13 -13 -13 -13 -13 -13 -14 -14 -14 -14 -15 -15 -16 -16 -17 -17 -17 -18 -18 -18 -18 -18 -19 -19 -19 -20 -20 -21 -21 -21 -21
-11 -12 -11 -12 -12 -13 -13 -13 -13 -13 -13 -13 -13 -14 -14 -14 -14 -14 -14 -14 -15 -15 -15 -16 -16 -17 -17 -17 -18 -19 -18 -18 -18 -19 -19 -20 -20 -21 -21 -21 -21 -21 -21
-12 -12 -12 -13 -13 -13 -13 -14 -14 -14 -13 -14 -14 -14 -14 -14 -14 -14 -15 -15 -15 -16 -16 -16 -17 -17 -17 -18 -19 -19 -19 -19 -19 -20 -20 -20 -21 -21 -21 -21 -22 -22 -22
-12 -12 -13 -14 -14 -14 -15 -16 -15 -14 -14 -14 -14 -15 -15 -15 -15 -15 -15 -15 -16 -16 -17 -17 -17 -18 -18 -19 -19 -19 -19 -20 -20 -20 -21 -21 -22 -22 -22 -22 -22 -22 -22
-13 -13 -14 -15 -15 -15 -16 -16 -16 -17 -16 -15 -15 -15 -15 -16 -16 -16 -16 -16 -17 -17 -17 -18 -18 -18 -19 -19 -19 -19 -20 -20 -20 -20 -21 -21 -22 -22 -22 -22 -22 -22 -23
-14 -14 -14 -14 -15 -15 -16 -16 -17 -17 -17 -17 -17 -16 -16 -16 -17 -17 -17 -17 -18 -18 -18 -19 -19 -20 -19 -19 -19 -19 -20 -21 -21 -22 -21 -22 -22 -22 -22 -22 -23 -23 -23
-15 -14 -15 -16 -16 -16 -16 -17 -17 -18 -18 -18 -18 -17 -17 -17 -18 -18 -18 -18 -19 -19 -19 -19 -20 -19 -19 -19 -19 -20 -21 -21 -22 -21 -22 -22 -22 -22 -22 -23 -23 -23 -24
-16 -16 -16 -16 -17 -17 -19 -19 -19 -18 -19 -19 -19 -19 -19 -19 -19 -19 -19 -19 -20 -20 -20 -20 -20 -19 -19 -19 -20 -21 -21 -22 -22 -22 -22 -22 -22 -22 -23 -23 -24 -24 -24
-16 -16 -17 -17 -17 -18 -18 -19 -19 -19 -19 -19 -19 -20 -20 -20 -20 -20 -20 -20 -20 -20 -20 -19 -19 -19 -20 -20 -21 -22 -22 -22 -22 -22 -22 -22 -23 -23 -23 -24 -25 -25 -26
-17 -18 -18 -18 -17 -18 -18 -18 -19 -20 -20 -20 -19 -19 -19 -19 -20 -20 -20 -20 -20 -19 -19 -19 -19 -20 -21 -21 -22 -22 -22 -22 -22 -22 -22 -23 -23 -23 -24 -25 -25 -25 -27
-18 -18 -19 -19 -18 -18 -18 -19 -19 -19 -19 -19 -19 -20 -20 -20 -20 -19 -20 -20 -19 -19 -19 -20 -20 -21 -21 -22 -22 -22 -22 -22 -22 -22 -23 -23 -23 -24 -25 -25 -26 -27 -28
-19 -19 -19 -19 -19 -19 -19 -19 -20 -20 -20 -20 -20 -20 -20 -20 -20 -20 -20 -19 -19 -20 -20 -21 -21 -21 -21 -21 -22 -22 -22 -22 -22 -23 -23 -23 -24 -25 -26 -26 -27 -28 -28
-19 -19 -19 -20 -20 -20 -20 -20 -20 -20 -20 -20 -20 -20 -20 -20 -20 -20 -20 -20 -20 -20 -21 -21 -21 -21 -22 -22 -22 -22 -22 -23 -23 -23 -24 -25 -25 -26 -27 -27 -28 -29 -29
-19 -19 -19 -19 -19 -19 -19 -19 -20 -19 -20 -20 -20 -20 -20 -20 -20 -20 -20 -20 -21 -21 -21 -21 -21 -22 -22 -22 -23 -23 -24 -23 -24 -25 -25 -26 -26 -27 -27 -28 -29 -30 -30
-19 -20 -20 -20 -20 -20 -20 -20 -20 -20 -20 -20 -20 -20 -20 -20 -20 -20 -21 -21 -22 -21 -22 -22 -22 -23 -23 -23 -23 -23 -24 -24 -25 -25 -26 -26 -27 -27 -28 -29 -30 -30 -31
-20 -20 -20 -21 -21 -21 -21 -21 -21 -21 -21 -21 -21 -21 -20 -20 -21 -21 -21 -21 -22 -22 -22 -23 -23 -24 -24 -24 -24 -24 -24 -25 -26 -26 -26 -27 -28 -29 -29 -30 -31 -31 -32
-21 -21 -21 -21 -21 -21 -21 -21 -21 -21 -21 -21 -21 -21 -21 -21 -21 -21 -22 -22 -22 -23 -23 -23 -24 -24 -25 -25 -25 -25 -26 -26 -27 -28 -28 -29 -29 -29 -30 -31 -31 -32 -33
-21 -21 -21 -21 -21 -21 -22 -22 -22 -22 -21 -21 -22 -22 -22 -22 -22 -22 -23 -23 -23 -23 -23 -23 -24 -25 -25 -25 -26 -27 -27 -28 -29 -29 -30 -30 -30 -31 -31 -32 -33 -33 -33
-22 -22 -22 -22 -22 -22 -22 -22 -22 -22 -22 -22 -22 -22 -22 -22 -22 -22 -23 -23 -23 -23 -24 -24 -25 -26 -27 -27 -27 -28 -28 -29 -30 -30 -30 -31 -31 -32 -32 -33 -33 -34 -34
-22 -22 -22 -22 -22 -22 -22 -22 -22 -22 -22 -22 -23 -23 -23 -23 -23 -24 -24 -24 -25 -25 -25 -25 -26 -27 -28 -28 -29 -29 -29 -30 -30 -31 -31 -32 -33 -33 -33 -33 -34 -34 -34
-22 -22 -22 -22 -22 -22 -22 -22 -22 -23 -23 -23 -23 -24 -24 -24 -24 -25 -25 -26 -26 -26 -27 -27 -28 -29 -29 -30 -30 -30 -31 -31 -32 -32 -32 -33 -33 -34 -34 -34 -34 -35 -35
-23 -23 -23 -23 -23 -23 -23 -23 -23 -24 -24 -24 -24 -25 -25 -25 -26 -26 -26 -26 -27 -27 -28 -28 -29 -30 -30 -31 -31 -31 -32 -32 -33 -33 -33 -33 -34 -34 -34 -35 -35 -35 -35
-23 -24 -24 -24 -24 -24 -24 -24 -25 -25 -25 -25 -26 -26 -26 -27 -27 -28 -28 -28 -29 -29 -29 -29 -30 -30 -31 -31 -32 -32 -33 -34 -34 -34 -34 -34 -35 -35 -35 -35 -35 -35 -36
Height
5791 5793 5794 5796 5797 5797 5797 5798 5798 5799 5797 5796 5795 5793 5791 5789 5786 5783 5780 5776 5773 5769 5765 5761 5757 5753 5748 5744 5739 5734 5727 5722 5716 5709 5702 5694 5684 5676 5667 5659 5649 5641 5632
5781 5781 5783 5784 5786 5786 5786 5785 5785 5786 5784 5784 5782 5781 5779 5776 5773 5771 5768 5764 5760 5756 5752 5749 5745 5741 5737 5734 5729 5723 5716 5709 5703 5696 5689 5682 5673 5663 5657 5647 5639 5630 5621
5770 5771 5772 5774 5774 5774 5774 5774 5774 5773 5772 5770 5769 5768 5766 5763 5761 5758 5755 5752 5748 5744 5740 5737 5733 5729 5726 5723 5718 5712 5706 5699 5691 5683 5676 5668 5661 5652 5642 5635 5627 5618 5608
5757 5759 5760 5762 5762 5762 5761 5761 5760 5760 5758 5757 5755 5754 5752 5751 5748 5745 5742 5739 5735 5732 5728 5724 5720 5717 5714 5710 5705 5700 5694 5687 5680 5672 5664 5656 5648 5641 5634 5624 5615 5607 5597
5746 5746 5745 5746 5747 5748 5748 5747 5746 5745 5744 5743 5742 5740 5738 5737 5735 5732 5729 5726 5722 5719 5715 5711 5708 5704 5701 5697 5693 5687 5682 5673 5667 5659 5651 5643 5636 5628 5622 5615 5607 5596 5585
5731 5731 5731 5732 5731 5732 5733 5733 5733 5732 5731 5729 5727 5726 5723 5721 5720 5717 5714 5712 5709 5705 5702 5698 5695 5692 5688 5684 5679 5674 5668 5661 5655 5646 5638 5630 5624 5617 5610 5604 5595 5585 5575
5718 5717 5717 5717 5717 5717 5717 5717 5718 5718 5716 5716 5714 5711 5709 5707 5706 5703 5700 5697 5695 5692 5689 5685 5682 5678 5675 5669 5665 5660 5654 5647 5641 5634 5627 5620 5613 5604 5597 5590 5582 5573 5563
5705 5703 5703 5702 5702 5702 5703 5702 5702 5702 5701 5700 5699 5697 5695 5693 5691 5688 5686 5684 5682 5679 5675 5672 5668 5665 5660 5656 5652 5647 5640 5633 5626 5621 5615 5608 5601 5593 5585 5576 5568 5559 5549
5690 5689 5689 5688 5688 5687 5686 5686 5685 5686 5685 5684 5682 5681 5680 5677 5676 5674 5673 5671 5668 5665 5662 5659 5655 5651 5647 5644 5639 5632 5625 5619 5612 5606 5602 5596 5588 5580 5572 5564 5555 5546 5537
5675 5676 5676 5675 5674 5673 5672 5670 5668 5667 5667 5667 5668 5666 5664 5663 5662 5660 5658 5656 5653 5650 5647 5644 5641 5637 5633 5629 5624 5617 5611 5604 5598 5592 5586 5580 5574 5567 5558 5550 5542 5533 5524
5661 5661 5662 5661 5659 5659 5658 5658 5655 5654 5652 5650 5650 5648 5648 5647 5645 5644 5641 5639 5637 5635 5633 5630 5626 5622 5619 5613 5608 5602 5596 5590 5584 5578 5571 5565 5558 5552 5544 5536 5528 5519 5509
5646 5646 5646 5646 5644 5643 5644 5644 5643 5641 5639 5637 5635 5634 5633 5631 5630 5628 5626 5624 5622 5620 5617 5613 5610 5606 5602 5597 5592 5587 5581 5576 5570 5564 5558 5550 5544 5537 5530 5522 5513 5505 5496
5629 5629 5628 5628 5627 5627 5629 5627 5627 5625 5624 5622 5621 5618 5618 5616 5613 5611 5609 5608 5607 5604 5601 5598 5593 5590 5585 5581 5576 5571 5566 5561 5555 5550 5543 5536 5529 5522 5514 5509 5501 5492 5482
5617 5616 5615 5614 5613 5613 5613 5613 5612 5612 5611 5608 5605 5604 5601 5599 5599 5596 5593 5593 5591 5588 5585 5580 5577 5573 5569 5565 5559 5555 5550 5545 5540 5534 5528 5521 5514 5508 5500 5493 5486 5478 5471
5604 5603 5601 5600 5600 5599 5598 5597 5596 5594 5593 5592 5589 5588 5586 5586 5584 5581 5579 5577 5573 5571 5568 5565 5561 5557 5553 5548 5543 5538 5534 5529 5524 5518 5512 5505 5499 5492 5485 5477 5470 5463 5457
5592 5590 5589 5588 5588 5587 5586 5584 5583 5581 5580 5579 5576 5574 5573 5570 5567 5565 5562 5559 5556 5554 5551 5548 5544 5540 5536 5532 5527 5522 5516 5512 5506 5500 5494 5489 5483 5477 5469 5461 5455 5449 5443
5581 5579 5577 5576 5575 5574 5572 5570 5569 5567 5565 5564 5562 5559 5556 5554 5551 5548 5545 5543 5540 5537 5534 5530 5527 5523 5520 5515 5509 5502 5496 5492 5487 5482 5477 5471 5466 5460 5453 5446 5440 5434 5429
5569 5567 5566 5564 5562 5559 5558 5557 5555 5553 5551 5549 5547 5544 5541 5538 5535 5532 5529 5526 5524 5520 5518 5514 5510 5505 5501 5496 5491 5485 5479 5473 5469 5464 5458 5453 5447 5442 5435 5430 5424 5419 5413
5556 5555 5553 5551 5549 5548 5546 5544 5542 5540 5538 5536 5533 5530 5527 5523 5521 5517 5514 5512 5508 5504 5500 5497 5492 5487 5482 5477 5471 5466 5460 5455 5450 5444 5439 5433 5428 5423 5419 5414 5408 5402 5396
5545 5543 5541 5539 5538 5535 5533 5532 5529 5527 5525 5522 5519 5516 5512 5508 5505 5501 5498 5495 5490 5486 5482 5477 5473 5468 5463 5457 5452 5446 5441 5435 5430 5425 5420 5415 5410 5406 5402 5397 5391 5386 5380
5532 5531 5529 5527 5524 5522 5520 5517 5514 5512 5509 5506 5503 5499 5495 5492 5487 5483 5479 5475 5472 5468 5464 5459 5453 5447 5442 5436 5431 5426 5420 5414 5410 5405 5401 5397 5392 5388 5383 5379 5373 5368 5362
5515 5514 5513 5510 5508 5505 5502 5499 5496 5493 5490 5487 5484 5480 5476 5473 5468 5464 5459 5454 5449 5445 5441 5436 5431 5425 5419 5415 5410 5405 5400 5395 5391 5386 5381 5377 5373 5369 5365 5360 5356 5351 5347
5498 5495 5493 5491 5489 5486 5483 5479 5476 5473 5469 5465 5461 5457 5453 5449 5444 5439 5435 5430 5425 5420 5416 5411 5407 5402 5397 5393 5389 5384 5380 5375 5370 5366 5362 5358 5353 5349 5346 5343 5338 5333 5329
5478 5476 5474 5470 5467 5464 5461 5458 5454 5450 5446 5442 5438 5434 5429 5423 5419 5415 5410 5405 5400 5395 5390 5385 5381 5376 5372 5368 5365 5361 5356 5353 5349 5345 5342 5338 5334 5330 5327 5324 5320 5316 5313
5457 5454 5451 5449 5444 5440 5435 5432 5429 5425 5421 5416 5411 5407 5402 5397 5392 5387 5383 5378 5372 5368 5363 5359 5355 5350 5346 5343 5340 5337 5333 5329 5325 5322 5320 5317 5314 5310 5307 5305 5301 5298 5295
5433 5430 5427 5423 5420 5416 5412 5406 5402 5397 5392 5388 5383 5378 5373 5368 5362 5357 5352 5347 5344 5339 5335 5332 5327 5323 5319 5315 5311 5308 5305 5303 5300 5297 5297 5296 5294 5291 5288 5285 5283 5281 5277
Wind_Speed
54 53 53 54 52 53 55 55 56 56 55 54 53 53 54 56 56 56 56 56 57 58 58 58 58 58 56 56 54 57 59 60 60 65 70 69 64 65 62 60 62 62 66
60 58 56 56 57 56 59 58 59 58 60 58 58 57 57 58 59 58 59 59 59 60 60 60 58 58 57 55 55 57 57 60 66 70 71 66 62 62 60 61 61 65 69
64 63 62 60 59 60 61 62 64 62 62 62 62 61 60 61 61 61 61 61 61 61 61 60 59 58 57 56 57 58 60 67 68 72 70 64 62 61 63 62 64 68 72
46 48 64 64 63 65 66 65 66 65 65 66 66 65 64 62 62 62 63 62 62 62 61 60 59 58 57 57 59 59 64 67 72 71 65 62 62 63 62 64 69 72 75
48 50 49 58 68 67 68 69 69 69 68 67 67 67 65 63 62 62 63 63 63 62 60 59 58 58 57 60 59 61 63 71 69 66 62 62 65 64 64 67 70 73 74
52 50 50 50 65 70 70 70 70 70 69 68 66 63 65 64 62 63 63 63 61 60 60 59 58 58 59 61 60 61 65 73 67 62 61 63 66 65 68 69 71 73 74
50 49 48 51 60 68 70 68 68 70 70 70 68 65 63 63 64 63 62 61 60 58 58 57 57 59 62 61 63 66 72 65 63 61 60 64 65 68 70 72 71 73 75
51 52 50 52 59 67 65 66 66 67 67 65 66 65 64 63 64 63 62 58 58 57 56 56 58 63 62 61 70 71 64 63 61 60 61 68 69 70 71 71 72 73 76
57 55 53 56 58 62 63 63 62 62 62 64 65 65 64 61 61 60 58 56 54 54 55 61 61 59 64 71 69 65 60 61 60 61 66 67 69 70 69 70 72 73 78
60 61 60 59 58 60 64 64 64 56 53 50 51 53 52 52 52 51 51 56 56 57 60 59 61 68 70 68 64 59 60 61 62 66 68 69 68 67 69 70 72 76 79
61 63 64 64 64 64 55 54 49 48 49 48 52 53 56 55 54 54 53 54 57 56 59 65 69 64 67 63 58 60 61 63 65 67 68 68 67 67 69 70 74 77 78
58 62 67 68 67 67 64 58 57 59 56 57 54 51 50 53 57 58 58 57 59 64 66 63 66 67 61 56 62 62 62 63 65 65 65 64 66 69 69 71 75 76 75
59 61 62 63 66 65 71 60 56 49 53 55 57 57 57 54 55 59 62 63 62 60 64 69 65 58 55 62 63 63 62 62 62 62 63 66 68 71 71 73 75 75 70
53 54 56 58 60 61 60 55 55 56 58 55 53 53 55 56 58 59 58 60 64 68 70 59 59 53 58 61 61 61 61 61 61 63 66 69 70 71 72 75 74 70 67
47 49 51 52 54 56 57 57 54 51 51 53 56 58 60 62 62 63 64 67 67 62 58 58 52 58 59 59 60 59 60 63 65 66 69 71 71 72 74 73 72 68 67
45 46 47 51 57 59 59 60 62 60 60 59 59 60 62 66 68 72 67 57 57 60 52 47 56 60 57 58 61 64 66 68 67 68 70 71 72 73 72 70 69 67 67
43 44 46 48 50 52 52 52 53 53 53 54 55 56 58 56 52 49 55 62 58 50 48 55 57 58 64 63 65 67 67 69 71 71 72 73 76 74 72 70 69 67 67
46 46 48 48 48 48 49 49 47 47 47 47 47 47 50 54 57 55 51 48 50 54 58 59 63 64 63 66 70 72 74 75 74 75 74 77 77 76 72 71 69 69 67
49 50 50 48 48 49 49 49 49 48 47 48 49 50 52 51 49 50 50 53 60 62 65 65 66 67 68 70 72 75 76 77 77 77 79 79 76 74 74 73 70 67 67
48 50 52 53 52 51 51 51 53 54 55 54 54 56 56 58 60 61 63 64 66 69 71 72 71 72 72 74 78 77 76 75 78 79 76 75 75 76 74 71 69 64 63
51 54 56 57 55 55 55 56 57 58 60 60 61 63 66 68 70 70 71 72 73 76 76 75 75 75 77 79 79 77 76 77 76 74 75 75 72 71 70 73 62 65 60
53 56 58 60 63 63 63 64 65 65 66 67 67 69 70 72 73 75 76 77 77 78 78 78 78 78 78 77 77 78 78 78 75 75 76 73 71 71 75 63 62 58 57
59 60 63 64 66 67 68 69 70 71 71 72 73 75 77 78 78 79 79 78 79 80 81 82 81 80 79 78 78 80 80 80 78 74 73 70 70 69 65 61 60 58 59
66 68 69 70 71 72 74 75 76 77 78 79 81 82 82 83 82 82 82 82 82 83 83 83 82 82 81 80 79 78 78 79 79 76 72 73 69 66 61 61 59 56 57
73 74 76 78 78 79 80 82 84 84 86 86 86 87 86 86 85 84 85 85 84 84 83 82 83 83 85 85 86 86 86 83 79 77 74 70 65 63 62 60 61 56 56
82 82 83 86 88 90 90 89 90 89 88 89 89 88 87 85 83 81 80 80 80 80 80 80 80 80 81 82 83 83 81 78 75 73 72 66 62 62 63 62 65 60 56
Wind_Direction
256 256 257 259 259 259 261 263 267 269 269 270 270 272 274 278 280 282 285 286 288 289 291 292 294 295 295 293 294 295 298 306 313 316 317 318 317 318 319 320 321 321 324
252 257 257 258 259 262 263 264 265 267 269 271 271 272 273 275 278 281 284 285 287 288 290 292 292 293 292 291 294 295 302 309 312 313 317 317 316 318 319 320 321 323 325
255 257 259 260 260 263 264 265 266 267 269 271 272 273 274 276 278 280 282 284 285 287 289 290 292 291 291 291 293 294 300 304 312 314 315 315 316 320 321 321 322 323 326
266 268 262 262 264 264 266 267 268 269 270 271 272 273 275 276 278 279 281 282 283 286 289 289 289 289 289 291 294 296 301 309 311 313 313 314 317 320 318 320 321 323 325
265 263 264 261 260 264 267 268 267 268 269 271 272 274 276 276 277 279 280 281 284 286 287 287 287 288 289 292 295 297 305 311 310 311 312 314 318 316 317 318 320 322 325
261 260 263 264 261 261 265 269 268 270 270 271 273 273 275 277 276 275 278 281 282 284 285 285 285 287 291 292 294 302 308 306 308 310 311 314 314 315 315 317 319 322 324
258 259 261 264 264 264 264 265 268 268 268 270 271 273 274 275 276 277 278 281 282 283 283 284 286 288 290 292 301 304 303 304 306 310 311 311 312 313 314 316 318 321 324
260 260 259 261 264 262 263 264 266 267 269 269 272 274 274 274 275 277 279 280 281 281 282 284 287 287 291 299 301 301 302 303 306 309 309 307 308 311 314 316 319 322 323
262 260 260 262 263 264 266 269 266 268 269 270 270 271 271 273 275 276 277 277 280 281 282 284 285 293 292 294 298 300 301 301 306 307 305 306 308 311 313 315 318 320 323
268 268 265 264 265 265 266 270 271 260 262 262 267 269 273 274 275 277 276 275 276 279 285 287 288 289 295 296 300 300 302 303 303 303 303 305 308 311 312 316 318 320 322
268 268 266 266 267 268 269 272 270 272 272 272 272 271 270 273 276 276 276 275 281 284 282 282 287 289 293 297 300 301 300 301 300 301 303 306 309 311 313 315 317 318 321
267 267 266 264 267 265 263 266 266 263 270 268 265 264 263 264 265 267 274 276 275 276 283 286 288 294 294 300 300 298 298 298 299 301 305 308 309 311 312 313 314 317 323
263 261 262 265 267 269 265 271 264 263 263 267 272 272 275 275 274 278 278 278 280 281 285 289 292 293 300 298 296 296 296 298 300 302 305 307 308 309 309 311 314 318 323
268 270 268 269 271 273 275 271 270 271 273 276 278 279 278 276 277 279 277 277 283 284 290 289 295 294 294 294 294 294 297 299 301 304 305 306 306 307 308 310 315 319 323
278 278 278 279 278 275 273 272 272 271 270 270 270 270 272 276 277 279 281 284 288 287 291 292 289 291 291 291 293 297 297 298 301 302 302 303 304 304 307 312 315 319 322
278 279 279 280 280 279 277 275 273 271 270 274 277 277 276 279 282 282 284 284 285 289 286 283 283 287 291 294 293 295 298 301 300 299 300 301 302 304 309 312 316 319 320
277 279 280 279 276 275 276 275 276 276 276 276 277 277 276 277 280 283 283 282 283 279 278 282 289 288 295 294 297 301 298 296 298 297 298 299 302 306 310 312 316 317 316
279 281 284 285 285 285 285 284 283 282 282 285 287 288 287 284 282 281 279 277 271 280 289 287 286 295 296 294 292 295 295 295 295 295 297 299 304 307 311 313 314 314 313
284 284 284 284 286 288 290 291 290 287 285 283 282 279 277 276 277 279 278 277 284 291 291 292 290 295 293 294 293 292 292 292 292 294 296 301 305 308 309 310 311 310 311
284 284 283 284 286 287 289 290 290 289 287 284 283 280 275 276 279 281 283 284 285 287 290 292 293 292 292 289 289 290 290 289 290 295 298 300 302 304 305 306 308 307 310
285 285 285 283 282 285 288 289 290 290 289 287 286 284 283 283 284 286 287 287 287 288 288 288 288 287 286 286 287 287 287 288 291 293 295 297 296 299 301 305 302 309 303
282 281 281 281 281 283 284 284 285 283 281 281 281 282 281 282 283 283 285 287 287 288 288 288 286 285 284 284 283 283 283 286 288 289 291 292 295 297 301 300 301 299 299
280 280 280 281 281 282 282 283 283 283 284 284 285 286 287 287 288 289 288 287 286 286 287 287 286 284 283 282 281 281 282 283 285 286 288 290 293 296 296 296 295 294 295
280 280 281 281 281 283 285 285 286 286 287 287 288 288 288 288 288 287 286 286 285 285 283 283 282 281 280 280 280 280 280 282 286 287 286 287 289 290 289 290 293 292 294
283 283 284 285 286 287 287 288 289 290 290 290 289 289 289 288 287 285 285 284 283 282 281 281 279 278 276 276 277 277 279 282 282 282 284 284 283 281 285 288 289 289 290
287 288 289 289 289 289 289 289 289 288 289 289 289 289 288 288 287 286 285 285 284 283 283 282 280 279 278 277 277 277 278 278 278 276 278 280 280 281 286 288 289 287 285